W5CGC Weather Reports


time (UTC)temp
C
wind
direction
speed
KPH
gust
KPH
rain 1hr
cm
rain 24hr
cm
rain mn
cm
humidity
%
barometer
mb
20260901133044 24 0 0.0 3.2 0.00 0.00 0.00 87 1017.1
20260901131542 24 0 0.0 1.6 0.00 0.00 0.00 88 1016.9
20260901130042 23 0 0.0 1.6 0.00 0.00 0.00 88 1016.7
20260901124541 23 0 0.0 0.0 0.00 0.00 0.00 88 1016.5
20260901123048 22 0 0.0 0.0 0.00 0.00 0.00 88 1016.4
20260901121559 22 0 0.0 0.0 0.00 0.00 0.00 87 1016.2
20260901120041 22 0 0.0 0.0 0.00 0.00 0.00 88 1016.1
20260901114540 22 0 0.0 0.0 0.00 0.00 0.00 87 1016.0
20260901113044 23 0 0.0 0.0 0.00 0.00 0.00 87 1015.9
20260901111540 22 0 0.0 0.0 0.00 0.00 0.00 86 1015.8
20260901110041 22 0 0.0 0.0 0.00 0.00 0.00 83 1015.6
20260901104554 22 0 0.0 0.0 0.00 0.00 0.00 74 1015.5
20260901103042 23 0 0.0 1.6 0.00 0.00 0.00 69 1015.5
20260901101542 26 0 0.0 1.6 0.00 0.00 0.00 59 1015.5
20260901100055 27 129 0.0 1.6 0.00 0.00 0.00 50 1015.5
20260901094542 27 117 0.0 3.2 0.00 0.00 0.00 49 1015.4
20260901093050 27 120 0.0 1.6 0.00 0.00 0.00 49 1015.6
20260901091541 28 0 0.0 1.6 0.00 0.00 0.00 48 1015.7
20260901090042 28 116 0.0 4.8 0.00 0.00 0.00 46 1015.7
20260901084541 28 56 1.6 6.4 0.00 0.00 0.00 45 1015.5
20260901083042 28 0 0.0 6.4 0.00 0.00 0.00 44 1015.5
20260901081540 28 105 3.2 6.4 0.00 0.00 0.00 43 1015.5
20260901080045 27 123 0.0 4.8 0.00 0.00 0.00 42 1015.4
20260901074542 27 112 0.0 3.2 0.00 0.00 0.00 43 1015.4
20260901073047 27 0 0.0 1.6 0.00 0.00 0.00 44 1015.3
20260901071542 26 0 0.0 1.6 0.00 0.00 0.00 45 1015.3
20260901070042 27 0 0.0 0.0 0.00 0.00 0.00 44 1015.3
20260901064545 27 0 0.0 0.0 0.00 0.00 0.00 42 1015.2
20260901063042 27 148 0.0 1.6 0.00 0.00 0.00 44 1015.2
20260901061541 27 0 0.0 0.0 0.00 0.00 0.00 46 1015.1
20260901060044 26 138 0.0 1.6 0.00 0.00 0.00 45 1014.9
20260901054538 25 0 0.0 0.0 0.00 0.00 0.00 44 1014.8
20260901053040 26 0 0.0 0.0 0.00 0.00 0.00 45 1014.6
20260901051545 26 0 0.0 0.0 0.00 0.00 0.00 43 1014.5
20260901050040 26 0 0.0 0.0 0.00 0.00 0.00 42 1014.4
20260901044553 26 0 0.0 0.0 0.00 0.00 0.00 41 1014.3
20260901043037 26 0 0.0 0.0 0.00 0.00 0.00 41 1014.3
20260901041542 27 0 0.0 0.0 0.00 0.00 0.00 40 1014.3
20260901040043 27 0 0.0 0.0 0.00 0.00 0.00 38 1014.3
20260901034539 27 0 0.0 0.0 0.00 0.00 0.00 36 1014.2
20260901033042 27 0 0.0 0.0 0.00 0.00 0.00 36 1014.3
20260901031544 27 0 0.0 0.0 0.00 0.00 0.00 36 1014.2
20260901030050 28 0 0.0 0.0 0.00 0.00 0.00 35 1014.1
20260901024540 28 0 0.0 0.0 0.00 0.00 0.00 33 1014.1
20260901023045 28 0 0.0 0.0 0.00 0.00 0.00 33 1013.9
20260901021545 29 0 0.0 0.0 0.00 0.00 0.00 32 1013.7
20260901020049 30 0 0.0 0.0 0.00 0.00 0.00 30 1013.5
20260901014546 30 0 0.0 0.0 0.00 0.00 0.00 29 1013.3
20260901013046 31 0 0.0 0.0 0.00 0.00 0.00 28 1013.3
20260901011541 32 0 0.0 0.0 0.00 0.00 0.00 27 1013.2
20260901010048 32 0 0.0 1.6 0.00 0.00 0.00 25 1013.2
20260901004556 33 0 0.0 1.6 0.00 0.00 0.00 24 1013.1
20260901003044 34 0 0.0 3.2 0.00 0.00 0.00 22 1013.1
20260901001538 35 0 0.0 6.4 0.00 0.00 0.00 21 1013.1
20260901000045 35 134 0.0 8.0 0.00 0.00 0.00 20 1013.1
20260831234543 35 117 1.6 11.3 0.00 0.00 0.00 20 1013.1
20260831233041 35 116 3.2 9.7 0.00 0.00 0.00 20 1013.0
20260831231541 35 117 1.6 3.2 0.00 0.00 0.00 22 1013.0
20260831230045 36 167 1.6 9.7 0.00 0.00 0.00 20 1013.0
20260831224546 37 101 3.2 14.5 0.00 0.00 0.00 17 1013.1
20260831223040 36 264 1.6 4.8 0.00 0.00 0.00 20 1013.2
20260831221539 36 117 1.6 9.7 0.00 0.00 0.00 18 1013.2
20260831220044 37 122 1.6 8.0 0.00 0.00 0.00 18 1013.5
20260831214601 37 170 1.6 8.0 0.00 0.00 0.00 18 1013.6
20260831213040 37 179 3.2 12.9 0.00 0.00 0.00 18 1013.9
20260831211542 38 118 3.2 16.1 0.00 0.00 0.00 16 1013.9
20260831210042 37 133 3.2 14.5 0.00 0.00 0.00 18 1014.0
20260831204539 37 75 1.6 8.0 0.00 0.00 0.00 19 1014.3
20260831203038 37 115 3.2 11.3 0.00 0.00 0.00 18 1014.6
20260831201541 37 262 3.2 11.3 0.00 0.00 0.00 19 1014.6
20260831200046 38 155 3.2 12.9 0.00 0.00 0.00 18 1014.7
20260831194547 39 152 0.0 11.3 0.00 0.00 0.00 19 1014.9
20260831193043 38 141 1.6 9.7 0.00 0.00 0.00 16 1015.2
20260831191540 38 150 1.6 12.9 0.00 0.00 0.00 19 1015.4
20260831190059 37 136 1.6 11.3 0.00 0.00 0.00 20 1015.5
20260831184546 37 44 1.6 11.3 0.00 0.00 0.00 21 1015.6
20260831183052 36 169 1.6 14.5 0.00 0.00 0.00 23 1015.6
20260831181545 36 65 1.6 17.7 0.00 0.00 0.00 25 1016.0
20260831180046 36 169 1.6 16.1 0.00 0.00 0.00 25 1016.2
20260831174543 36 0 3.2 9.7 0.00 0.00 0.00 27 1016.4
20260831173042 35 118 0.0 14.5 0.00 0.00 0.00 27 1016.7
20260831171543 35 177 1.6 9.7 0.00 0.00 0.00 26 1016.8
20260831170043 35 149 0.0 8.0 0.00 0.00 0.00 27 1016.8
20260831164551 34 119 1.6 9.7 0.00 0.00 0.00 28 1016.9
20260831163044 33 0 0.0 4.8 0.00 0.00 0.00 30 1016.9
20260831161546 33 236 0.0 3.2 0.00 0.00 0.00 31 1017.1
20260831160105 32 0 0.0 6.4 0.00 0.00 0.00 32 1017.1
20260831154619 32 0 0.0 4.8 0.00 0.00 0.00 34 1017.2
20260831153040 31 136 0.0 8.0 0.00 0.00 0.00 35 1017.0
20260831151540 31 120 0.0 4.8 0.00 0.00 0.00 38 1016.9
20260831150047 30 0 0.0 3.2 0.00 0.00 0.00 41 1016.8
20260831144545 30 0 0.0 3.2 0.00 0.00 0.00 44 1016.8
20260831143040 29 0 0.0 6.4 0.00 0.00 0.00 46 1016.8
20260831141541 28 0 0.0 8.0 0.00 0.00 0.00 48 1017.0
20260831140042 28 0 0.0 1.6 0.00 0.00 0.00 51 1016.9
20260831134544 27 0 0.0 0.0 0.00 0.00 0.00 52 1016.7